Погода в Раухе

Финляндия     61°10′00″N   28°40′42″E
темп.,
°C
ветер,
м/с
пор.,
м/с
влажн.,
%
обл.,
%
осадки,
мм/ч
давл.,
гПа
погр.,
м
5 декабря, вс
вс523:00−14св510825 0.0 1016443
02:00−15св510845 0.0 1018382
05:00−15св510845 0.0 1019368
08:00−16св510845 0.0 1021360
11:00−15св59835 0.0 1023352
14:00−15св47845 0.0 1024282
17:00−16св49885 0.0 1025228
20:00−16св489116 0.0 1026212
6 декабря, пн
пн623:00−15св499325 0.0 1026216
02:00−14св499318 0.0 1026201
05:00−13св4109335 0.0 1025247
08:00−12св4109483 0.1 1025273
11:00−9в3991100 0.4 1024872
14:00−10вюв379299 0.6 1023510
17:00−12всв139697 0.1 102393
20:00−11всв2495100 0.2 1022168
7 декабря, вт
вт723:00−12св369486 0.1 1021175
02:00−12св489383 0.3 1020230
05:00−12св4109199 0.1 1019263
08:00−12св489394 0.1 1018219
11:00−12ссв469073 0.1 1018210
14:00−12ссв369258 0.1 1017219
17:00−12с379571 0.0 1016215
20:00−12ссз369574 0.0 1016205
8 декабря, ср
ср823:00−12ссз379575 0.0 1016221
02:00−12ссз379582 0.1 1016228
05:00−12ссз479584 0.0 1016226
08:00−13сз379566 0.0 1017188
11:00−13сз369347 0.0 1019201
14:00−13сз36949 0.0 1019199
17:00−14сз379420 0.0 1021173
20:00−14сз369596 0.0 1022146
9 декабря, чт
чт923:00−13сз3594100 0.0 1023154
02:00−13сз359566 0.0 1023155
05:00−14сз259534 0.0 1024118
08:00−14сз249530 0.0 1024103
11:00−13ссз249419 0.0 1025110
14:00−13сз239529 0.0 102567
17:00−14ссз239543 0.0 102556
20:00−14ссз229533 0.0 102543